Вернуться в каталог

STARLINK-31777

АктивенСвязьVLEO
NORAD 59619·PAYLOAD·🇺🇸 United States

Запущен Apr 28, 2024 с Cape Canaveral Space Force Station

Loading…

Ближайшие Пролёты (ближайшие 24 часа)

TLE

СвежийSource: CelesTrak SupGP

Эпоха: Sep 14, 2026, 22:05 UTC

1 59619C 24080U   26257.92062500  .00058186  00000+0  21074-2 0  2570
2 59619  43.0043  53.0545 0001608 277.7982 269.4453 15.27551092    16

Отслеживайте STARLINK-31777 в реальном времени с AllMySat

Download on the App Store